This demonstration page uses our WeatherBlox Daily Observations layout. Learn more.

41.86663, -103.66717

Hourly Observations for June 3, 2019

Temp ( °F °C ) Dew Point ( °F °C ) Humidity (%) Winds ( mph kmh ) Pressure ( in mb ) Visibility ( mi km ) Precip ( " mm )
12:53 am 00:53 Clear 52 11.1 50 10 93 93 E 5 7 29.86 1011 10 16.0934 0 0
1:53 am 01:53 Clear 55 12.8 52 11.1 90 90 SE 8 13 29.84 1011 10 16.0934 0 0
2:53 am 02:53 Clear 54 12.2 51 10.6 90 90 ESE 7 11 29.83 1010 10 16.0934 0 0
3:53 am 03:53 Clear 52 11.1 51 10.6 97 97 E 7 11 29.86 1011 10 16.0934 0 0
4:53 am 04:53 Clear 52 11.1 51 10.6 97 97 undefined N/A 29.88 1012 10 16.0934 0 0
5:53 am 05:53 Sunny 51 10.6 51 10.6 100 100 ESE 6 9 29.87 1011 10 16.0934 0 0
6:53 am 06:53 Sunny 55 12.8 54 12.2 96 96 ESE 8 13 29.86 1011 10 16.0934 0 0
7:53 am 07:53 Sunny 61 16.1 55 12.8 81 81 SE 8 13 29.85 1011 10 16.0934 0 0
8:53 am 08:53 Sunny 65 18.3 55 12.8 70 70 Calm 29.85 1011 10 16.0934 0 0
9:53 am 09:53 Sunny 70 21.1 53 11.7 55 55 WNW 3 6 29.82 1010 10 16.0934 0 0
10:53 am 10:53 Sunny 73 22.8 55 12.8 53 53 W 3 6 29.83 1010 10 16.0934 0 0
11:53 am 11:53 Sunny 76 24.4 55 12.8 48 48 Calm 29.83 1010 10 16.0934 0 0
12:53 pm 12:53 Sunny 79 26.1 57 13.9 47 47 S 6 9 29.81 1010 10 16.0934 0 0
1:53 pm 13:53 Sunny 78 25.6 56 13.3 47 47 SSW 6 9 29.8 1009 10 16.0934 0 0
2:53 pm 14:53 Sunny 82 27.8 58 14.4 44 44 SE 9 15 29.78 1008 10 16.0934 0 0
3:53 pm 15:53 Sunny 80 26.7 59 15 49 49 Calm 29.77 1008 10 16.0934 0 0
4:53 pm 16:53 Sunny 78 25.6 57 13.9 48 48 S 6 9 29.75 1008 10 16.0934 0 0
5:53 pm 17:53 Mostly Sunny 76 24.4 52 11.1 43 43 S 20 31 29.76 1008 10 16.0934 0 0
6:53 pm 18:53 Sunny 72 22.2 46 7.8 40 40 SSW 16 26 29.78 1009 10 16.0934 0 0
7:53 pm 19:53 Mostly Cloudy with Light Rain 70 21.1 47 8.3 44 44 SE 6 9 29.84 1011 10 16.0934 0 0.0254
8:53 pm 20:53 Clear 67 19.4 47 8.3 49 49 SSE 10 17 29.82 1010 10 16.0934 0 0.0254
9:53 pm 21:53 Clear 60 15.6 50 10 70 70 WSW 9 15 29.83 1010 10 16.0934 0 0
10:53 pm 22:53 Clear 61 16.1 49 9.4 65 65 WNW 9 15 29.85 1011 10 16.0934 0 0
11:53 pm 23:53 Clear 58 14.4 50 10 75 75 NW 9 15 29.82 1010 10 16.0934 0 0

Powered by AerisWeather